Location: Park Creek Village Mobile Home Park
(38.2885°N, 122.4714°W)
Time: 01:35:08
(UTC+00:00)

FENGYUN 3A - Pass Details

Date: 14 December 2019
Orbit: 823 x 837 km, 98.4° (Epoch: 22 January)

Event Time Altitude Azimuth Distance (km) Brightness Sun altitude
Rises 14:17:51 0° 3° (N) 3,371 6.6 -11.7°
Reaches altitude 10° 14:20:22 10° 355° (N) 2,432 5.8 -11.2°
Maximum altitude 14:25:13 36° 291° (WNW) 1,294 4.2 -10.3°
Drops below altitude 10° 14:30:02 10° 226° (SW) 2,415 5.8 -9.4°
Sets 14:32:32 0° 218° (SW) 3,344 6.7 -9.0°
